When you browse on this site, cookies collect data to enhance your experience and personalize the content and advertising you see.
Visit our Privacy Policy to learn more. By continuing to use the site, you agree to this use of cookies and data.
  • In Hungary
  • List of Countries
  • For 7 days
  • Water Temperature
  • Weather Map
  • News
  • Weather Widgets
  • user-avatar
    Login

    Hourly Weather Yablunne

    Today, 8 April, Wednesday

    Time Temperature Precipitation Wind Pressure Humidity
    00:00 +8°C° 0 mm 3 mps 756 mmHg 56%
    01:00 +8°C° 0 mm 3 mps 756 mmHg 58%
    02:00 +8°C° 0 mm 3 mps 756 mmHg 59%
    03:00 +7°C° 0 mm 3 mps 755 mmHg 62%
    04:00 +7°C° 0 mm 3 mps 755 mmHg 65%
    05:00 +5°C° 0 mm 3 mps 755 mmHg 67%
    06:00 +7°C° 0 mm 3 mps 755 mmHg 67%
    07:00 +8°C° 0 mm 3 mps 755 mmHg 66%
    08:00 +9°C° 0 mm 3 mps 755 mmHg 66%
    09:00 +11°C° 0 mm 3 mps 755 mmHg 59%
    10:00 +13°C° 0 mm 3 mps 755 mmHg 51%
    11:00 +14°C° 0 mm 3 mps 755 mmHg 44%
    12:00 +16°C° 0 mm 3 mps 755 mmHg 40%
    13:00 +17°C° 0 mm 3 mps 754 mmHg 37%
    14:00 +18°C° 0 mm 4 mps 754 mmHg 33%
    15:00 +17°C° 0 mm 3 mps 754 mmHg 35%
    16:00 +17°C° 0 mm 3 mps 753 mmHg 37%
    17:00 +17°C° 0 mm 3 mps 753 mmHg 39%
    18:00 +15°C° 0 mm 2 mps 753 mmHg 45%
    19:00 +13°C° 0 mm 2 mps 753 mmHg 51%
    20:00 +11°C° 0 mm 1 mps 753 mmHg 57%
    21:00 +11°C° 0 mm 1 mps 753 mmHg 59%
    22:00 +10°C° 0 mm 1 mps 752 mmHg 61%
    23:00 +9°C° 0 mm 1 mps 752 mmHg 63%

    Tomorrow, 9 April, Thursday

    Time Temperature Precipitation Wind Pressure Humidity
    00:00 +9°C° 0 mm 1 mps 752 mmHg 64%
    01:00 +8°C° 0 mm 1 mps 752 mmHg 65%
    02:00 +8°C° 0 mm 1 mps 751 mmHg 66%
    03:00 +7°C° 0 mm 1 mps 751 mmHg 68%
    04:00 +7°C° 0 mm 1 mps 751 mmHg 69%
    05:00 +6°C° 0 mm 2 mps 751 mmHg 71%
    06:00 +7°C° 0 mm 2 mps 750 mmHg 68%
    07:00 +9°C° 0 mm 2 mps 750 mmHg 64%
    08:00 +10°C° 0 mm 2 mps 750 mmHg 61%
    09:00 +13°C° 0 mm 2 mps 749 mmHg 55%
    10:00 +14°C° 0 mm 3 mps 749 mmHg 49%
    11:00 +17°C° 0 mm 3 mps 749 mmHg 43%
    12:00 +18°C° 0 mm 4 mps 748 mmHg 43%
    13:00 +19°C° 0 mm 4 mps 747 mmHg 42%
    14:00 +20°C° 0 mm 4 mps 747 mmHg 42%
    15:00 +20°C° 0 mm 4 mps 746 mmHg 41%
    16:00 +19°C° 0 mm 5 mps 746 mmHg 41%
    17:00 +19°C° 0 mm 5 mps 745 mmHg 41%
    18:00 +17°C° 0 mm 4 mps 745 mmHg 45%
    19:00 +14°C° 0 mm 3 mps 745 mmHg 50%
    20:00 +13°C° 0 mm 3 mps 745 mmHg 55%
    21:00 +12°C° 0 mm 3 mps 745 mmHg 58%
    22:00 +11°C° 0 mm 4 mps 745 mmHg 61%
    23:00 +10°C° 0 mm 4 mps 745 mmHg 65%

    Day after tomorrow, 10 April, Friday

    Time Temperature Precipitation Wind Pressure Humidity
    00:00 +10°C° 0.1 mm 4 mps 745 mmHg 71%
    01:00 +10°C° 0.1 mm 4 mps 745 mmHg 77%
    02:00 +8°C° 0.1 mm 4 mps 745 mmHg 84%
    03:00 +7°C° 0.1 mm 4 mps 745 mmHg 84%
    04:00 +6°C° 0.1 mm 4 mps 745 mmHg 84%
    05:00 +6°C° 0.1 mm 5 mps 746 mmHg 83%
    06:00 +5°C° 0 mm 5 mps 746 mmHg 81%
    07:00 +4°C° 0 mm 6 mps 747 mmHg 78%
    08:00 +4°C° 0 mm 6 mps 747 mmHg 75%
    09:00 +5°C° 0 mm 7 mps 748 mmHg 64%
    10:00 +6°C° 0 mm 7 mps 748 mmHg 54%
    11:00 +8°C° 0 mm 7 mps 749 mmHg 43%
    12:00 +8°C° 0 mm 7 mps 749 mmHg 41%
    13:00 +9°C° 0 mm 7 mps 749 mmHg 39%
    14:00 +9°C° 0 mm 6 mps 749 mmHg 37%
    15:00 +9°C° 0 mm 6 mps 749 mmHg 38%
    16:00 +9°C° 0 mm 6 mps 749 mmHg 39%
    17:00 +9°C° 0 mm 6 mps 749 mmHg 40%
    18:00 +7°C° 0 mm 5 mps 749 mmHg 45%
    19:00 +6°C° 0 mm 4 mps 749 mmHg 50%
    20:00 +5°C° 0 mm 3 mps 750 mmHg 56%
    21:00 +5°C° 0 mm 2 mps 750 mmHg 60%
    22:00 +5°C° 0 mm 2 mps 750 mmHg 64%
    23:00 +4°C° 0 mm 2 mps 750 mmHg 68%

    11 April, Saturday

    Time Temperature Precipitation Wind Pressure Humidity
    00:00 +4°C° 0 mm 2 mps 750 mmHg 69%
    01:00 +3°C° 0 mm 2 mps 750 mmHg 70%
    02:00 +3°C° 0 mm 2 mps 750 mmHg 71%
    03:00 +2°C° 0 mm 2 mps 751 mmHg 71%
    04:00 +2°C° 0 mm 2 mps 751 mmHg 70%
    05:00 +2°C° 0 mm 2 mps 751 mmHg 70%
    06:00 +3°C° 0 mm 2 mps 752 mmHg 67%
    07:00 +4°C° 0 mm 2 mps 752 mmHg 64%
    08:00 +4°C° 0 mm 3 mps 752 mmHg 61%
    09:00 +7°C° 0 mm 3 mps 752 mmHg 56%
    10:00 +8°C° 0 mm 3 mps 752 mmHg 50%
    11:00 +8°C° 0 mm 4 mps 753 mmHg 45%
    12:00 +10°C° 0 mm 4 mps 753 mmHg 42%
    13:00 +10°C° 0 mm 4 mps 753 mmHg 39%
    14:00 +11°C° 0 mm 4 mps 753 mmHg 36%
    15:00 +10°C° 0 mm 4 mps 752 mmHg 36%
    16:00 +10°C° 0 mm 4 mps 752 mmHg 35%
    17:00 +8°C° 0 mm 4 mps 752 mmHg 35%
    18:00 +8°C° 0 mm 3 mps 752 mmHg 38%
    19:00 +7°C° 0 mm 3 mps 753 mmHg 41%
    20:00 +5°C° 0 mm 2 mps 753 mmHg 44%
    21:00 +5°C° 0 mm 2 mps 753 mmHg 45%
    22:00 +5°C° 0 mm 2 mps 753 mmHg 47%
    23:00 +4°C° 0 mm 2 mps 753 mmHg 48%

    12 April, Sunday

    Time Temperature Precipitation Wind Pressure Humidity
    00:00 +4°C° 0 mm 2 mps 753 mmHg 49%
    01:00 +3°C° 0 mm 2 mps 753 mmHg 50%
    02:00 +3°C° 0 mm 2 mps 753 mmHg 51%
    03:00 +3°C° 0 mm 2 mps 753 mmHg 53%
    04:00 +2°C° 0 mm 2 mps 752 mmHg 54%
    05:00 +2°C° 0 mm 2 mps 752 mmHg 55%
    06:00 +3°C° 0 mm 2 mps 752 mmHg 52%
    07:00 +4°C° 0 mm 2 mps 752 mmHg 49%
    08:00 +5°C° 0 mm 3 mps 752 mmHg 46%
    09:00 +7°C° 0 mm 3 mps 751 mmHg 43%
    10:00 +9°C° 0 mm 3 mps 751 mmHg 40%
    11:00 +11°C° 0 mm 3 mps 751 mmHg 37%
    12:00 +12°C° 0 mm 3 mps 750 mmHg 36%
    13:00 +13°C° 0 mm 3 mps 750 mmHg 35%
    14:00 +14°C° 0 mm 3 mps 749 mmHg 34%
    15:00 +14°C° 0 mm 3 mps 748 mmHg 35%
    16:00 +14°C° 0 mm 3 mps 748 mmHg 36%
    17:00 +14°C° 0 mm 3 mps 747 mmHg 37%
    18:00 +13°C° 0 mm 2 mps 747 mmHg 42%
    19:00 +12°C° 0 mm 2 mps 746 mmHg 47%
    20:00 +9°C° 0 mm 2 mps 746 mmHg 52%
    21:00 +9°C° 0 mm 2 mps 746 mmHg 55%
    22:00 +8°C° 0 mm 2 mps 745 mmHg 57%
    23:00 +8°C° 0 mm 2 mps 745 mmHg 60%

    13 April, Monday

    Time Temperature Precipitation Wind Pressure Humidity
    00:00 +7°C° 0 mm 2 mps 745 mmHg 62%
    01:00 +7°C° 0 mm 3 mps 744 mmHg 63%
    02:00 +7°C° 0 mm 3 mps 744 mmHg 64%
    03:00 +7°C° 0 mm 3 mps 744 mmHg 67%
    04:00 +5°C° 0 mm 3 mps 744 mmHg 70%
    05:00 +5°C° 0 mm 3 mps 743 mmHg 73%
    06:00 +7°C° 0 mm 4 mps 743 mmHg 68%
    07:00 +10°C° 0 mm 4 mps 743 mmHg 64%
    08:00 +10°C° 0 mm 5 mps 743 mmHg 60%
    09:00 +13°C° 0 mm 5 mps 742 mmHg 55%
    10:00 +14°C° 0 mm 6 mps 742 mmHg 49%
    11:00 +16°C° 0 mm 6 mps 742 mmHg 44%
    12:00 +16°C° 0 mm 6 mps 741 mmHg 42%
    13:00 +17°C° 0 mm 7 mps 741 mmHg 40%
    14:00 +18°C° 0 mm 7 mps 740 mmHg 38%
    15:00 +18°C° 0 mm 7 mps 740 mmHg 40%
    16:00 +17°C° 0 mm 6 mps 739 mmHg 43%
    17:00 +17°C° 0 mm 6 mps 739 mmHg 45%
    18:00 +16°C° 0 mm 5 mps 738 mmHg 49%
    19:00 +15°C° 0 mm 5 mps 738 mmHg 53%
    20:00 +14°C° 0 mm 4 mps 737 mmHg 56%
    21:00 +13°C° 0 mm 5 mps 737 mmHg 57%
    22:00 +13°C° 0 mm 5 mps 737 mmHg 59%
    23:00 +12°C° 0 mm 5 mps 737 mmHg 60%
    Show more